Weather History for Ramona, CA

Change the Weather History Date:

Tuesday, August 27, 2013

  Actual Average Record
Temperature  
Mean Temperature 79 °F 74 °F  
Max Temperature 92 °F 91 °F 105 °F (2009)
Min Temperature 65 °F 57 °F 43 °F (1978)
Degree Days  
Heating Degree Days 0 0  
Month to date heating degree days 1 0  
Since 1 June heating degree days 3 29  
Since 1 July heating degree days 1 2  
Cooling Degree Days 14 9  
Month to date cooling degree days 188 242  
Year to date cooling degree days 595 577  
Since 1 June cooling degree days 547 550  
Growing Degree Days 28 (Base 50)    
Moisture  
Dew Point 58 °F    
Average Humidity 55    
Maximum Humidity 73    
Minimum Humidity 36    
Precipitation  
Precipitation 0.00 in 0.00 in 0.02 in (1994)
Month to date precipitation T 0.12  
Year to date precipitation 4.58 11.58  
Since 1 July precipitation 0.08 0.25  
Snow  
Snow 0.00 in - - ()
Month to date snowfall 0.0  
Year to date snowfall 0.0  
Since 1 July snowfall 0.0  
Snow Depth 0.00 in    
Sea Level Pressure  
Sea Level Pressure 29.80 in    
Wind  
Wind Speed 4 mph (West)    
Max Wind Speed 16 mph    
Max Gust Speed 21 mph    
Visibility 10 miles    
Events      
T = Trace of Precipitation, MM = Missing Value Source: NWS Daily Summary

Daily Weather History Graph

Daily Weather History Graph

Search for Another Location

Airport:

Trip Planner

Search our weather history database for the weather conditions in past years. The results will help you decide how hot, cold, wet, or windy it might be!

Date:

Astronomy

Aug. 27, 2013 Rise Set
Actual Time 6:19 AM PDT 7:18 PM PDT
Civil Twilight 5:53 AM PDT 7:43 PM PDT
Nautical Twilight 5:23 AM PDT 8:13 PM PDT
Astronomical Twilight 4:52 AM PDT 8:44 PM PDT
Moon 11:38 PM PDT (8/27) 12:57 PM PDT (8/27)
Length of Visible Light 13h 50m
Length of Day
12h 59m
Waning Gibbous, 56% of the Moon is Illuminated
Aug 27
Waning Gibbous
Aug 28
Last Quarter
Sep 5
New
Sep 12
First Quarter
Sep 19
Full

Hourly Weather History & Observations

Time (PDT) Temp. Heat Index Dew Point Humidity Pressure Visibility Wind Dir Wind Speed Gust Speed Precip Events Conditions
12:53 AM 71.1 °F - 57.9 °F 63% 29.83 in 10.0 mi Calm Calm - N/A   Clear
1:53 AM 69.1 °F - 57.9 °F 68% 29.82 in 10.0 mi Calm Calm - N/A   Clear
2:53 AM 69.1 °F - 57.0 °F 65% 29.80 in 10.0 mi Calm Calm - N/A   Clear
3:53 AM 69.1 °F - 57.9 °F 68% 29.79 in 10.0 mi Calm Calm - N/A   Clear
4:53 AM 69.1 °F - 57.0 °F 65% 29.79 in 10.0 mi Calm Calm - N/A   Clear
5:53 AM 66.9 °F - 57.0 °F 70% 29.80 in 10.0 mi Calm Calm - N/A   Clear
6:53 AM 66.9 °F - 57.0 °F 70% 29.82 in 10.0 mi Calm Calm - N/A   Clear
7:53 AM 77.0 °F - 61.0 °F 58% 29.83 in 10.0 mi Calm Calm - N/A   Clear
8:53 AM 84.0 °F 84.5 °F 62.1 °F 47% 29.82 in 10.0 mi Calm Calm - N/A   Clear
9:53 AM 88.0 °F 88.4 °F 62.1 °F 42% 29.82 in 10.0 mi Calm Calm - N/A   Scattered Clouds
10:53 AM 90.0 °F 90.0 °F 61.0 °F 38% 29.81 in 10.0 mi WNW 10.4 mph - N/A   Scattered Clouds
11:53 AM 91.0 °F 91.5 °F 62.1 °F 38% 29.81 in 10.0 mi West 8.1 mph - N/A   Scattered Clouds
12:53 PM 91.0 °F 91.5 °F 62.1 °F 38% 29.79 in 10.0 mi West 12.7 mph - N/A   Clear
1:53 PM 91.9 °F 92.5 °F 62.1 °F 37% 29.79 in 10.0 mi WNW 11.5 mph - N/A   Clear
2:00 PM - - - N/A% - - North - - N/A   Unknown
2:53 PM 89.1 °F 89.0 °F 61.0 °F 39% 29.78 in 10.0 mi West 13.8 mph - N/A   Scattered Clouds
3:53 PM 88.0 °F 87.1 °F 59.0 °F 37% 29.78 in 10.0 mi West 10.4 mph - N/A   Clear
4:53 PM 87.1 °F 85.9 °F 57.0 °F 36% 29.78 in 10.0 mi West 6.9 mph - N/A   Clear
5:53 PM 86.0 °F 84.2 °F 54.0 °F 33% 29.77 in 10.0 mi West 8.1 mph - N/A   Clear
6:53 PM 82.0 °F 81.2 °F 53.1 °F 37% 29.78 in 10.0 mi West 10.4 mph - N/A   Clear
7:53 PM 77.0 °F - 54.0 °F 45% 29.79 in 10.0 mi WNW 4.6 mph - N/A   Clear
8:53 PM 73.9 °F - 52.0 °F 46% 29.80 in 10.0 mi Calm Calm - N/A   Clear
9:53 PM 73.9 °F - 52.0 °F 46% 29.80 in 10.0 mi Calm Calm - N/A   Clear
10:53 PM 71.1 °F - 52.0 °F 51% 29.80 in 10.0 mi Calm Calm - N/A   Clear
11:53 PM 70.0 °F - 52.0 °F 53% 29.79 in 10.0 mi Calm Calm - N/A   Clear